EW0890 Weather Reports


Display with metric or nautical units.
time (UTC)temp
F
wind
direction
speed
MPH
gust
MPH
rain 1hr
in
rain 24hr
in
rain mn
in
humidity
%
barometer
mb
20260906120109 68 62 3.0 6.0 0.00 0.00 0.00 96 1017.6
20260906120025 68 59 3.0 6.0 0.00 0.00 0.00 96 1017.5
20260906115514 68 63 3.0 6.0 0.00 0.00 0.00 96 1017.3
20260906115012 68 58 3.0 6.0 0.00 0.00 0.00 96 1017.4
20260906114609 68 72 4.0 6.0 0.00 0.00 0.00 96 1017.5
20260906114532 68 70 3.0 6.0 0.00 0.00 0.00 96 1017.3
20260906114015 68 65 3.0 6.0 0.00 0.00 0.00 96 1017.4
20260906113503 68 60 3.0 5.0 0.00 0.00 0.00 96 1017.2
20260906113104 68 68 3.0 5.0 0.00 0.00 0.00 96 1017.3
20260906113012 68 63 3.0 5.0 0.00 0.00 0.00 96 1017.1
20260906112507 68 68 3.0 5.0 0.00 0.00 0.00 96 1017.0
20260906112008 69 54 3.0 5.0 0.00 0.00 0.00 96 1017.0
20260906111559 69 48 3.0 6.0 0.00 0.00 0.00 96 1017.1
20260906111519 69 61 3.0 6.0 0.00 0.00 0.00 96 1016.9
20260906111009 69 72 4.0 6.0 0.00 0.00 0.00 96 1016.7
20260906110509 70 60 4.0 6.0 0.00 0.00 0.00 95 1016.7
20260906110056 70 68 4.0 7.0 0.00 0.00 0.00 95 1016.8
20260906110025 70 44 4.0 7.0 0.00 0.00 0.00 95 1016.6
20260906105510 70 73 3.0 7.0 0.00 0.00 0.00 95 1016.4
20260906105014 70 78 4.0 7.0 0.00 0.00 0.00 95 1016.3
20260906104601 70 84 4.0 7.0 0.00 0.00 0.00 95 1016.5
20260906104532 70 63 4.0 7.0 0.00 0.00 0.00 95 1016.3
20260906104016 70 70 5.0 7.0 0.00 0.00 0.00 95 1016.4
20260906103516 70 63 4.0 7.0 0.00 0.00 0.00 95 1016.3
20260906103101 71 65 5.0 10.0 0.00 0.00 0.00 94 1016.4
20260906103029 71 76 5.0 8.0 0.00 0.00 0.00 94 1016.2
20260906102507 71 68 4.0 10.0 0.00 0.00 0.00 95 1016.2
20260906102005 71 66 6.0 10.0 0.00 0.00 0.00 94 1016.1
20260906101558 71 68 5.0 8.0 0.00 0.00 0.00 95 1016.3
20260906101518 71 70 5.0 8.0 0.00 0.00 0.00 95 1016.0
20260906101011 71 69 5.0 8.0 0.00 0.00 0.00 95 1016.0
20260906100510 71 53 6.0 8.0 0.00 0.00 0.00 95 1016.0
20260906100027 71 64 6.0 8.0 0.00 0.00 0.00 95 1016.0
20260906095510 71 68 4.0 7.0 0.00 0.00 0.00 96 1016.0
20260906095012 71 84 4.0 7.0 0.00 0.00 0.00 96 1016.1
20260906094608 70 51 4.0 6.0 0.00 0.00 0.00 96 1016.3
20260906094529 70 47 4.0 6.0 0.00 0.00 0.00 96 1016.0
20260906094011 70 66 3.0 5.0 0.00 0.00 0.00 96 1016.1
20260906093516 70 67 3.0 5.0 0.00 0.00 0.00 96 1016.1
20260906093100 70 56 3.0 5.0 0.00 0.00 0.00 96 1016.3
20260906093031 70 60 3.0 5.0 0.00 0.00 0.00 96 1016.1
20260906092519 70 58 2.0 5.0 0.00 0.00 0.00 96 1016.1
20260906092005 70 70 2.0 5.0 0.00 0.00 0.00 95 1016.0
20260906091608 70 64 3.0 5.0 0.00 0.00 0.00 95 1016.2
20260906091510 71 65 3.0 5.0 0.00 0.00 0.00 95 1016.0
20260906091003 71 80 2.0 5.0 0.00 0.00 0.00 95 1016.0
20260906090507 71 66 3.0 6.0 0.00 0.00 0.00 95 1015.9
20260906090107 71 49 4.0 6.0 0.00 0.00 0.00 95 1016.3
20260906090021 71 56 3.0 6.0 0.00 0.00 0.00 95 1016.0
20260906085512 71 59 3.0 4.0 0.00 0.00 0.00 95 1016.0
20260906085012 71 68 3.0 4.0 0.00 0.00 0.00 95 1016.1
20260906084605 71 70 2.0 4.0 0.00 0.00 0.00 95 1016.4
20260906084527 71 60 2.0 4.0 0.00 0.00 0.00 95 1016.1
20260906084014 71 52 2.0 4.0 0.00 0.00 0.00 95 1016.2
20260906083512 71 57 3.0 5.0 0.00 0.00 0.00 95 1016.2
20260906083105 71 60 3.0 6.0 0.00 0.00 0.00 95 1016.4
20260906083030 71 71 3.0 6.0 0.00 0.00 0.00 95 1016.1
20260906082516 71 68 3.0 6.0 0.00 0.00 0.00 94 1016.1
20260906082015 71 63 3.0 6.0 0.00 0.00 0.00 94 1016.0
20260906081604 71 73 3.0 5.0 0.00 0.00 0.00 94 1016.3
20260906081531 71 57 3.0 5.0 0.00 0.00 0.00 94 1016.0
20260906081017 71 51 2.0 6.0 0.00 0.00 0.00 94 1016.0
20260906080504 71 60 2.0 6.0 0.00 0.00 0.00 94 1016.1
20260906080105 71 60 3.0 6.0 0.00 0.00 0.00 94 1016.3
20260906080016 71 62 3.0 6.0 0.00 0.00 0.00 94 1016.2
20260906075507 71 72 4.0 6.0 0.00 0.00 0.00 94 1016.2
20260906075007 71 70 2.0 4.0 0.00 0.00 0.00 94 1016.2
20260906074607 71 15 1.0 4.0 0.00 0.00 0.00 94 1016.5
20260906074523 71 41 1.0 4.0 0.00 0.00 0.00 94 1016.2
20260906074011 71 66 1.0 5.0 0.00 0.00 0.00 94 1016.2
20260906073512 71 74 3.0 5.0 0.00 0.00 0.00 94 1016.1
20260906073104 71 63 3.0 5.0 0.00 0.00 0.00 94 1016.3
20260906073026 71 69 3.0 5.0 0.00 0.00 0.00 94 1016.0
20260906072515 71 64 2.0 5.0 0.00 0.00 0.00 94 1016.0
20260906072013 71 52 3.0 5.0 0.00 0.00 0.00 94 1016.0
20260906071647 71 79 3.0 5.0 0.00 0.00 0.00 94 1016.3
20260906071529 71 64 3.0 5.0 0.00 0.00 0.00 94 1016.0
20260906071014 71 68 2.0 4.0 0.00 0.00 0.00 94 1016.2
20260906070515 71 71 2.0 4.0 0.00 0.00 0.00 94 1016.2
20260906070107 70 75 2.0 3.0 0.00 0.00 0.00 94 1016.6
20260906070032 70 63 1.0 3.0 0.00 0.00 0.00 94 1016.3
20260906065517 70 71 1.0 3.0 0.00 0.00 0.00 94 1016.4
20260906065004 70 65 0.0 0.0 0.00 0.00 0.00 94 1016.4
20260906064600 70 0 0.0 0.0 0.00 0.00 0.00 94 1016.6
20260906064519 70 67 0.0 0.0 0.00 0.00 0.00 94 1016.4
20260906064008 70 72 0.0 2.0 0.00 0.00 0.00 95 1016.4
20260906063512 70 72 0.0 2.0 0.00 0.00 0.00 95 1016.4
20260906063102 70 0 0.0 2.0 0.00 0.00 0.00 95 1016.6
20260906063027 70 75 1.0 2.0 0.00 0.00 0.00 95 1016.4
20260906062512 70 69 0.0 2.0 0.00 0.00 0.00 95 1016.3
20260906062013 69 61 0.0 1.0 0.00 0.00 0.00 95 1016.4
20260906061603 69 61 0.0 2.0 0.00 0.00 0.00 95 1016.8
20260906061529 69 61 0.0 2.0 0.00 0.00 0.00 95 1016.5
20260906061014 69 84 0.0 2.0 0.00 0.00 0.00 95 1016.5
20260906060516 69 53 0.0 0.0 0.00 0.00 0.00 95 1016.5
20260906060105 69 0 0.0 0.0 0.00 0.00 0.00 95 1016.7
20260906060032 69 56 0.0 0.0 0.00 0.00 0.00 95 1016.5
20260906055518 69 70 0.0 0.0 0.00 0.00 0.00 95 1016.3
20260906055014 69 69 0.0 0.0 0.00 0.00 0.00 95 1016.2
20260906054605 69 0 0.0 0.0 0.00 0.00 0.00 95 1016.4
20260906054537 69 70 0.0 0.0 0.00 0.00 0.00 95 1016.2
20260906054022 68 70 0.0 0.0 0.00 0.00 0.00 95 1016.2
20260906053511 68 70 0.0 0.0 0.00 0.00 0.00 95 1016.0
20260906053110 68 0 0.0 0.0 0.00 0.00 0.00 94 1016.3
20260906053020 68 70 0.0 0.0 0.00 0.00 0.00 94 1016.0
20260906052507 69 70 0.0 0.0 0.00 0.00 0.00 94 1016.0
20260906052015 69 79 0.0 2.0 0.00 0.00 0.00 94 1016.0
20260906051604 69 0 0.0 3.0 0.00 0.00 0.00 94 1016.2
20260906051527 69 78 0.0 3.0 0.00 0.00 0.00 94 1015.9
20260906051015 69 65 1.0 4.0 0.00 0.00 0.00 94 1015.9
20260906050519 69 65 1.0 5.0 0.00 0.00 0.00 94 1015.9
20260906050111 69 69 3.0 6.0 0.00 0.00 0.00 94 1016.2
20260906050034 69 54 3.0 6.0 0.00 0.00 0.00 94 1015.8
20260906045514 69 68 3.0 6.0 0.00 0.00 0.00 94 1015.7
20260906045017 69 71 4.0 6.0 0.00 0.00 0.00 94 1015.7
20260906044600 69 78 3.0 8.0 0.00 0.00 0.00 94 1015.9
20260906044533 69 54 3.0 8.0 0.00 0.00 0.00 94 1015.6
20260906044014 69 56 4.0 8.0 0.00 0.00 0.00 94 1015.6
20260906043519 69 66 4.0 7.0 0.00 0.00 0.00 94 1015.6
20260906043106 70 57 4.0 9.0 0.00 0.00 0.00 94 1015.8
20260906043035 70 32 4.0 9.0 0.00 0.00 0.00 94 1015.6
20260906042517 69 65 3.0 9.0 0.00 0.00 0.00 94 1015.5
20260906042009 69 72 3.0 7.0 0.00 0.00 0.00 94 1015.6
20260906041603 70 70 3.0 7.0 0.00 0.00 0.00 94 1015.8
20260906041524 70 74 3.0 7.0 0.00 0.00 0.00 94 1015.5
20260906041013 70 67 3.0 7.0 0.00 0.00 0.00 94 1015.4
20260906040511 70 60 3.0 6.0 0.00 0.00 0.00 94 1015.4
20260906040117 70 46 4.0 7.0 0.00 0.00 0.00 94 1015.7
20260906040031 70 66 4.0 7.0 0.00 0.00 0.00 94 1015.4
20260906035513 70 67 4.0 7.0 0.00 0.00 0.00 94 1015.3
20260906035014 70 73 4.0 7.0 0.00 0.00 0.00 94 1015.3
20260906034607 70 63 4.0 8.0 0.00 0.00 0.00 93 1015.5
20260906034530 70 55 4.0 8.0 0.00 0.00 0.00 93 1015.3
20260906034016 71 58 5.0 8.0 0.00 0.00 0.00 94 1015.3
20260906033517 71 58 4.0 7.0 0.00 0.00 0.00 94 1015.3
20260906033111 71 63 4.0 7.0 0.00 0.00 0.00 94 1015.6
20260906033031 71 58 4.0 7.0 0.00 0.00 0.00 94 1015.3
20260906032518 71 69 4.0 6.0 0.00 0.00 0.00 94 1015.3
20260906032019 71 62 3.0 5.0 0.00 0.00 0.00 93 1015.4
20260906031604 71 63 3.0 6.0 0.00 0.00 0.00 93 1015.6
20260906031533 71 63 3.0 6.0 0.00 0.00 0.00 93 1015.3
20260906031022 71 65 3.0 7.0 0.00 0.00 0.00 93 1015.3
20260906030509 71 67 3.0 7.0 0.00 0.00 0.00 93 1015.3
20260906030020 72 47 2.0 5.0 0.00 0.00 0.00 92 1015.3
20260906025511 72 67 4.0 5.0 0.00 0.00 0.00 92 1015.2
20260906025015 72 58 3.0 5.0 0.00 0.00 0.00 92 1015.2
20260906024600 72 68 3.0 5.0 0.00 0.00 0.00 92 1015.4
20260906024527 72 65 3.0 5.0 0.00 0.00 0.00 92 1015.1
20260906024015 72 64 4.0 7.0 0.00 0.00 0.00 92 1015.1
20260906023503 73 68 3.0 7.0 0.00 0.00 0.00 91 1015.1
20260906023103 73 63 4.0 7.0 0.00 0.00 0.00 91 1015.3
20260906023009 73 72 4.0 7.0 0.00 0.00 0.00 91 1015.0
20260906022504 73 63 3.0 5.0 0.00 0.00 0.00 91 1014.9
20260906022003 73 57 2.0 7.0 0.00 0.00 0.00 90 1014.9
20260906021607 73 66 3.0 7.0 0.00 0.00 0.00 90 1015.1
20260906021520 73 70 3.0 7.0 0.00 0.00 0.00 90 1014.8
20260906021007 74 58 4.0 8.0 0.00 0.00 0.00 89 1014.7
20260906020507 74 64 5.0 9.0 0.00 0.00 0.00 89 1014.7
20260906020108 74 60 4.0 9.0 0.00 0.00 0.00 89 1014.9
20260906020025 74 60 4.0 9.0 0.00 0.00 0.00 88 1014.6
20260906015508 74 60 6.0 9.0 0.00 0.00 0.00 88 1014.6
20260906015010 75 53 6.0 9.0 0.00 0.00 0.00 88 1014.6
20260906014603 75 78 6.0 11.0 0.00 0.00 0.00 88 1014.7
20260906014528 75 39 6.0 11.0 0.00 0.00 0.00 88 1014.5
20260906014012 75 62 6.0 11.0 0.00 0.00 0.00 88 1014.6
20260906013506 75 33 6.0 11.0 0.00 0.00 0.00 87 1014.6
20260906013111 76 70 7.0 11.0 0.00 0.00 0.00 87 1014.8
20260906013008 76 74 7.0 11.0 0.00 0.00 0.00 87 1014.5
20260906012503 76 73 5.0 10.0 0.00 0.00 0.00 87 1014.4
20260906012003 76 62 5.0 10.0 0.00 0.00 0.00 86 1014.3
20260906011608 76 63 7.0 10.0 0.00 0.00 0.00 86 1014.4
20260906011510 77 58 7.0 10.0 0.00 0.00 0.00 86 1014.2
20260906011003 77 72 6.0 11.0 0.00 0.00 0.00 85 1014.2
20260906010508 77 60 5.0 11.0 0.00 0.00 0.00 85 1014.2
20260906010018 77 51 5.0 10.0 0.00 0.00 0.00 85 1014.2
20260906005509 78 43 5.0 12.0 0.00 0.00 0.00 85 1014.1
20260906005009 78 76 7.0 12.0 0.00 0.00 0.00 85 1014.0
20260906004612 78 73 4.0 8.0 0.00 0.00 0.00 85 1014.2
20260906004524 78 65 5.0 8.0 0.00 0.00 0.00 85 1014.0
20260906004012 78 74 4.0 8.0 0.00 0.00 0.00 84 1014.2
20260906003511 79 70 4.0 8.0 0.00 0.00 0.00 84 1014.1
20260906003105 79 66 4.0 6.0 0.00 0.00 0.00 83 1014.1
20260906003028 79 70 4.0 6.0 0.00 0.00 0.00 83 1014.0
20260906002514 80 80 3.0 8.0 0.00 0.00 0.00 83 1013.9
20260906002003 80 68 4.0 8.0 0.00 0.00 0.00 82 1013.8
20260906001601 80 68 5.0 11.0 0.00 0.00 0.00 81 1013.9
20260906001512 80 64 5.0 11.0 0.00 0.00 0.00 81 1013.8
20260906001003 81 57 6.0 11.0 0.00 0.00 0.00 81 1013.6
20260906000503 81 60 5.0 10.0 0.00 0.00 0.00 80 1013.7
20260906000107 82 53 4.0 10.0 0.00 0.00 0.00 80 1013.8
20260906000012 82 43 4.0 10.0 0.00 0.00 0.00 80 1013.7
20260905235507 82 56 5.0 11.0 0.00 0.00 0.00 79 1013.8
20260905235009 83 53 7.0 11.0 0.00 0.00 0.00 77 1013.5
20260905234602 83 70 6.0 10.0 0.00 0.00 0.00 77 1013.6
20260905234515 84 68 7.0 10.0 0.00 0.00 0.00 77 1013.6
20260905234014 84 56 4.0 8.0 0.00 0.00 0.00 76 1013.5
20260905233510 85 68 3.0 8.0 0.00 0.00 0.00 75 1013.7
20260905233059 85 73 3.0 6.0 0.00 0.00 0.00 74 1013.7
20260905233024 85 65 4.0 6.0 0.00 0.00 0.00 74 1013.6
20260905232512 86 63 2.0 7.0 0.00 0.00 0.00 72 1013.6
20260905232012 86 67 3.0 7.0 0.00 0.00 0.00 72 1013.4
20260905231603 86 69 4.0 7.0 0.00 0.00 0.00 71 1013.4
20260905231528 86 58 4.0 7.0 0.00 0.00 0.00 72 1013.2
20260905231003 86 73 3.0 6.0 0.00 0.00 0.00 72 1013.2
20260905230504 87 72 3.0 7.0 0.00 0.00 0.00 71 1013.1
20260905230010 87 54 3.0 7.0 0.00 0.00 0.00 71 1013.1
20260905225504 88 39 2.0 7.0 0.00 0.00 0.00 71 1013.3
20260905225003 88 68 4.0 7.0 0.00 0.00 0.00 70 1013.1
20260905224600 89 58 4.0 7.0 0.00 0.00 0.00 70 1013.2
20260905224516 89 65 3.0 7.0 0.00 0.00 0.00 69 1013.1
20260905224008 89 54 3.0 7.0 0.00 0.00 0.00 69 1013.1
20260905223510 89 75 2.0 8.0 0.00 0.00 0.00 67 1013.1
20260905223105 90 74 3.0 8.0 0.00 0.00 0.00 67 1013.2
20260905223020 90 88 3.0 8.0 0.00 0.00 0.00 67 1013.0
20260905222509 91 67 0.0 7.0 0.00 0.00 0.00 66 1013.0
20260905222010 91 331 0.0 6.0 0.00 0.00 0.00 67 1013.0
20260905221604 91 281 1.0 6.0 0.00 0.00 0.00 68 1013.3
20260905221527 91 281 1.0 6.0 0.00 0.00 0.00 66 1013.1
20260905221013 91 86 1.0 6.0 0.00 0.00 0.00 66 1013.0
20260905220513 91 359 2.0 8.0 0.00 0.00 0.00 67 1013.0
20260905220107 91 96 2.0 8.0 0.00 0.00 0.00 65 1013.2
20260905220029 91 65 2.0 8.0 0.00 0.00 0.00 64 1012.9
20260905215504 92 324 1.0 4.0 0.00 0.00 0.00 66 1012.9
20260905215006 92 120 1.0 4.0 0.00 0.00 0.00 66 1012.9
20260905214604 91 118 1.0 5.0 0.00 0.00 0.00 66 1013.2
20260905214513 91 118 1.0 5.0 0.00 0.00 0.00 66 1013.0
20260905214007 91 324 0.0 5.0 0.00 0.00 0.00 67 1012.9
20260905213509 91 66 1.0 5.0 0.00 0.00 0.00 66 1012.9
20260905213107 91 86 2.0 5.0 0.00 0.00 0.00 66 1013.1
20260905213017 91 46 2.0 5.0 0.00 0.00 0.00 66 1012.9
20260905212509 91 56 1.0 6.0 0.00 0.00 0.00 66 1012.9
20260905212008 91 54 3.0 7.0 0.00 0.00 0.00 65 1012.8
20260905211605 91 70 4.0 7.0 0.00 0.00 0.00 65 1013.0
20260905211527 92 45 4.0 7.0 0.00 0.00 0.00 65 1012.8
20260905211011 91 56 0.0 5.0 0.00 0.00 0.00 67 1012.9
20260905210511 91 31 3.0 5.0 0.00 0.00 0.00 66 1013.0
20260905210123 91 15 1.0 4.0 0.00 0.00 0.00 66 1013.2
20260905210029 91 44 2.0 4.0 0.00 0.00 0.00 67 1013.0
20260905205515 91 44 0.0 5.0 0.00 0.00 0.00 66 1013.0
20260905205013 92 50 0.0 6.0 0.00 0.00 0.00 66 1013.0
20260905204604 92 20 1.0 6.0 0.00 0.00 0.00 64 1013.2
20260905204531 92 112 1.0 6.0 0.00 0.00 0.00 66 1013.1
20260905204004 92 63 3.0 6.0 0.00 0.00 0.00 65 1013.0
20260905203508 92 88 2.0 7.0 0.00 0.00 0.00 66 1013.0
20260905203104 92 68 2.0 7.0 0.00 0.00 0.00 66 1013.1
20260905203014 92 47 2.0 7.0 0.00 0.00 0.00 66 1013.0
20260905202507 92 70 2.0 4.0 0.00 0.00 0.00 66 1013.2
20260905202008 92 81 0.0 5.0 0.00 0.00 0.00 65 1013.1
20260905201602 92 0 2.0 7.0 0.00 0.00 0.00 67 1013.3
20260905201520 92 316 2.0 7.0 0.00 0.00 0.00 65 1013.1
20260905201010 92 76 3.0 7.0 0.00 0.00 0.00 64 1013.0
20260905200509 92 319 3.0 6.0 0.00 0.00 0.00 66 1013.2
20260905200107 91 293 1.0 9.0 0.00 0.00 0.00 69 1013.3
20260905200033 91 89 1.0 9.0 0.00 0.00 0.00 70 1013.1
20260905195514 91 80 2.0 9.0 0.00 0.00 0.00 67 1013.2
20260905195016 92 343 2.0 9.0 0.00 0.00 0.00 68 1013.1
20260905194609 91 75 1.0 6.0 0.00 0.00 0.00 67 1013.4
20260905194528 91 56 1.0 6.0 0.00 0.00 0.00 67 1013.2
20260905194014 92 69 2.0 6.0 0.00 0.00 0.00 67 1013.1
20260905193521 92 59 2.0 5.0 0.00 0.00 0.00 66 1013.1
20260905193105 92 0 0.0 2.0 0.00 0.00 0.00 69 1013.3
20260905193034 92 319 0.0 2.0 0.00 0.00 0.00 68 1013.3
20260905192506 92 149 0.0 4.0 0.00 0.00 0.00 67 1013.4
20260905192005 92 60 2.0 5.0 0.00 0.00 0.00 65 1013.3
20260905191608 93 278 1.0 5.0 0.00 0.00 0.00 65 1013.5
20260905191515 93 307 1.0 5.0 0.00 0.00 0.00 64 1013.4
20260905191008 93 84 1.0 5.0 0.00 0.00 0.00 65 1013.4
20260905190509 93 352 0.0 5.0 0.00 0.00 0.00 64 1013.5
20260905190119 93 79 2.0 5.0 0.00 0.00 0.00 64 1013.5
20260905190034 93 18 2.0 5.0 0.00 0.00 0.00 66 1013.4
20260905185512 92 96 1.0 4.0 0.00 0.00 0.00 68 1013.5
20260905185012 93 94 1.0 6.0 0.00 0.00 0.00 64 1013.6
20260905184624 93 284 1.0 6.0 0.00 0.00 0.00 64 1013.7
20260905184537 93 258 0.0 6.0 0.00 0.00 0.00 65 1013.7
20260905184014 93 4 2.0 5.0 0.00 0.00 0.00 66 1013.6
20260905183513 92 247 2.0 5.0 0.00 0.00 0.00 66 1013.6
20260905183105 92 260 2.0 6.0 0.00 0.00 0.00 65 1013.8
20260905183031 92 281 2.0 6.0 0.00 0.00 0.00 65 1013.6
20260905182513 93 290 2.0 6.0 0.00 0.00 0.00 65 1013.7
20260905182018 93 60 2.0 5.0 0.00 0.00 0.00 65 1013.8
20260905181607 93 63 1.0 5.0 0.00 0.00 0.00 66 1013.9
20260905181534 93 61 2.0 5.0 0.00 0.00 0.00 65 1013.9
20260905181007 93 44 1.0 5.0 0.00 0.00 0.00 66 1013.9
20260905180504 92 63 1.0 5.0 0.00 0.00 0.00 66 1013.8
20260905180108 92 86 2.0 6.0 0.00 0.00 0.00 66 1014.1
20260905180016 92 237 1.0 6.0 0.00 0.00 0.00 67 1013.9
20260905175509 92 68 2.0 6.0 0.00 0.00 0.00 66 1013.9
20260905175012 92 65 3.0 5.0 0.00 0.00 0.00 64 1013.9
20260905174603 92 0 2.0 4.0 0.00 0.00 0.00 66 1014.2
20260905174526 92 326 2.0 4.0 0.00 0.00 0.00 66 1014.0
20260905174012 92 124 1.0 4.0 0.00 0.00 0.00 69 1014.0
20260905173513 92 15 1.0 6.0 0.00 0.00 0.00 68 1013.9
20260905173113 92 274 2.0 6.0 0.00 0.00 0.00 72 1014.2
20260905173027 92 297 1.0 6.0 0.00 0.00 0.00 70 1014.0
20260905172502 92 75 2.0 5.0 0.00 0.00 0.00 66 1014.1
20260905172003 91 100 1.0 5.0 0.00 0.00 0.00 68 1014.0
20260905171621 91 259 2.0 6.0 0.00 0.00 0.00 68 1014.2
20260905171508 91 95 1.0 6.0 0.00 0.00 0.00 67 1013.9
20260905171002 91 303 1.0 6.0 0.00 0.00 0.00 70 1013.9
20260905170505 91 60 1.0 6.0 0.00 0.00 0.00 70 1014.1
20260905170101 91 281 2.0 6.0 0.00 0.00 0.00 70 1014.4
20260905170011 91 84 1.0 6.0 0.00 0.00 0.00 67 1014.1
20260905165507 91 89 2.0 6.0 0.00 0.00 0.00 70 1014.2
20260905165006 91 123 2.0 5.0 0.00 0.00 0.00 68 1014.3
20260905164603 91 104 2.0 5.0 0.00 0.00 0.00 68 1014.7
20260905164520 91 278 2.0 5.0 0.00 0.00 0.00 69 1014.4
20260905164017 91 345 0.0 4.0 0.00 0.00 0.00 67 1014.3
20260905163509 91 307 1.0 4.0 0.00 0.00 0.00 69 1014.2
20260905163115 91 310 0.0 4.0 0.00 0.00 0.00 67 1014.5
20260905163027 91 253 0.0 4.0 0.00 0.00 0.00 69 1014.2
20260905162513 91 64 2.0 4.0 0.00 0.00 0.00 67 1014.2
20260905162014 90 75 2.0 7.0 0.00 0.00 0.00 68 1014.3
20260905161606 90 345 2.0 7.0 0.00 0.00 0.00 70 1014.6
20260905161530 90 290 2.0 7.0 0.00 0.00 0.00 70 1014.3
20260905161003 90 298 2.0 6.0 0.00 0.00 0.00 69 1014.3
20260905160504 90 221 1.0 4.0 0.00 0.00 0.00 69 1014.2
20260905160107 90 335 2.0 4.0 0.00 0.00 0.00 70 1014.5
20260905160017 90 248 2.0 4.0 0.00 0.00 0.00 70 1014.2
20260905155504 90 314 1.0 4.0 0.00 0.00 0.00 69 1014.1
20260905155007 90 256 1.0 4.0 0.00 0.00 0.00 70 1014.0
20260905154617 90 340 2.0 4.0 0.00 0.00 0.00 69 1014.2
20260905154513 90 304 1.0 4.0 0.00 0.00 0.00 71 1014.0
20260905154006 89 261 1.0 4.0 0.00 0.00 0.00 68 1014.0
20260905153510 89 259 2.0 4.0 0.00 0.00 0.00 70 1014.0
20260905153113 89 0 1.0 4.0 0.00 0.00 0.00 72 1014.2
20260905153027 89 290 1.0 4.0 0.00 0.00 0.00 70 1014.0
20260905152512 88 258 1.0 7.0 0.00 0.00 0.00 70 1014.0
20260905152012 88 297 2.0 7.0 0.00 0.00 0.00 69 1014.1
20260905151615 88 283 2.0 6.0 0.00 0.00 0.00 71 1014.3
20260905151528 88 289 1.0 6.0 0.00 0.00 0.00 72 1014.1
20260905151013 88 139 1.0 6.0 0.00 0.00 0.00 73 1014.0
20260905150515 88 237 2.0 6.0 0.00 0.00 0.00 72 1014.0
20260905150107 88 306 1.0 6.0 0.00 0.00 0.00 73 1014.2
20260905150030 88 305 0.0 6.0 0.00 0.00 0.00 75 1014.0
20260905145502 87 285 1.0 7.0 0.00 0.00 0.00 75 1013.9
20260905145004 87 6 1.0 9.0 0.00 0.00 0.00 75 1013.8
20260905144607 87 284 3.0 9.0 0.00 0.00 0.00 73 1014.0
20260905144521 87 294 3.0 9.0 0.00 0.00 0.00 74 1013.8
20260905144006 86 264 4.0 9.0 0.00 0.00 0.00 75 1013.7
20260905143510 86 271 3.0 9.0 0.00 0.00 0.00 75 1013.6
20260905143101 85 281 4.0 7.0 0.00 0.00 0.00 77 1013.7
20260905143022 85 295 4.0 7.0 0.00 0.00 0.00 76 1013.6
20260905142507 85 281 4.0 7.0 0.00 0.00 0.00 77 1013.6
20260905142009 84 285 2.0 5.0 0.00 0.00 0.00 81 1013.6
20260905141601 84 278 3.0 5.0 0.00 0.00 0.00 80 1013.8
20260905141525 84 281 3.0 5.0 0.00 0.00 0.00 81 1013.7
20260905141010 83 273 2.0 4.0 0.00 0.00 0.00 82 1013.7
20260905140513 83 254 1.0 4.0 0.00 0.00 0.00 84 1013.8
20260905140105 82 291 2.0 5.0 0.00 0.00 0.00 83 1014.1
20260905140030 82 288 2.0 5.0 0.00 0.00 0.00 83 1013.8
20260905135513 82 241 3.0 5.0 0.00 0.00 0.00 82 1013.8
20260905135014 83 289 2.0 4.0 0.00 0.00 0.00 82 1013.9
20260905134604 83 262 2.0 6.0 0.00 0.00 0.00 82 1014.2
20260905134530 83 250 2.0 6.0 0.00 0.00 0.00 82 1013.9
20260905134005 83 281 3.0 6.0 0.00 0.00 0.00 81 1013.9
20260905133508 83 269 2.0 4.0 0.00 0.00 0.00 82 1013.9
20260905133104 82 272 1.0 3.0 0.00 0.00 0.00 84 1014.0
20260905133015 82 271 1.0 3.0 0.00 0.00 0.00 84 1013.8
20260905132509 82 282 2.0 3.0 0.00 0.00 0.00 85 1013.7
20260905132010 81 281 1.0 3.0 0.00 0.00 0.00 85 1013.7
20260905131605 81 295 1.0 3.0 0.00 0.00 0.00 86 1013.9
20260905131520 81 281 1.0 3.0 0.00 0.00 0.00 86 1013.7
20260905131010 81 255 1.0 2.0 0.00 0.00 0.00 85 1013.7
20260905130514 81 274 1.0 4.0 0.00 0.00 0.00 86 1013.6
20260905130107 80 284 1.0 4.0 0.00 0.00 0.00 87 1013.8
20260905130028 80 278 1.0 4.0 0.00 0.00 0.00 87 1013.6
20260905125517 80 283 1.0 2.0 0.00 0.00 0.00 88 1013.7
20260905125018 79 263 0.0 2.0 0.00 0.00 0.00 89 1013.7
20260905124600 79 0 0.0 0.0 0.00 0.00 0.00 90 1013.9
20260905124529 79 267 0.0 0.0 0.00 0.00 0.00 90 1013.6
20260905124014 78 275 0.0 0.0 0.00 0.00 0.00 90 1013.6
20260905123516 78 275 0.0 1.0 0.00 0.00 0.00 90 1013.6
20260905123105 77 0 0.0 1.0 0.00 0.00 0.00 91 1013.7
20260905123032 77 274 0.0 1.0 0.00 0.00 0.00 91 1013.5
20260905122503 77 274 0.0 0.0 0.00 0.00 0.00 92 1013.4
20260905122008 76 274 0.0 0.0 0.00 0.00 0.00 92 1013.4
20260905121605 76 0 0.0 0.0 0.00 0.00 0.00 93 1013.6
20260905121516 76 274 0.0 0.0 0.00 0.00 0.00 93 1013.3
20260905121008 75 274 0.0 0.0 0.00 0.00 0.00 94 1013.3
20260905120508 75 274 0.0 0.0 0.00 0.00 0.00 94 1013.2